Location: Mactaquac Provincial Park
(45.9573°N, 66.8897°W)
Time: 21:27:04
(UTC-04:00)

Cosmos 1867 - Visible Passes

Search period start: 26 November 2014 00:00
Search period end: 06 December 2014 00:00
Orbit: 778 x 798 km, 65.0° (Epoch: 25 November)

Date Brightness Start Highest point End Pass type
(mag) Time Alt. Az. Time Alt. Az. Time Alt. Az.
26 Nov 3.5 18:52:22 10° SSW 18:57:42 62° ESE 18:58:43 52° ENE visible
26 Nov 5.8 20:37:00 10° W 20:39:26 22° WNW 20:39:26 22° WNW visible
27 Nov 3.9 18:21:01 10° S 18:26:11 47° ESE 18:28:36 28° ENE visible
27 Nov 5.0 20:04:57 10° WSW 20:09:18 34° WNW 20:09:18 34° WNW visible
28 Nov 4.3 17:49:49 10° S 17:54:41 35° ESE 17:58:23 16° ENE visible
28 Nov 4.4 19:33:00 10° WSW 19:38:11 44° NW 19:39:05 41° NNW visible
29 Nov 4.7 17:18:48 10° SSE 17:23:14 26° ESE 17:27:41 10° ENE visible
29 Nov 4.1 19:01:09 10° SW 19:06:30 56° NW 19:08:48 33° NNE visible
29 Nov 6.2 20:47:50 10° WNW 20:49:29 15° NW 20:49:29 15° NW visible
30 Nov 3.7 18:29:25 10° SW 18:34:50 73° NW 18:38:26 22° NNE visible
30 Nov 5.7 20:15:29 10° WNW 20:19:07 19° NW 20:19:07 19° NW visible
01 Dec 3.6 17:57:47 10° SSW 18:03:13 87° SE 18:08:01 14° NE visible
01 Dec 5.4 19:43:14 10° W 19:47:31 23° NW 19:48:42 22° NNW visible
02 Dec 3.7 17:26:17 10° SSW 17:31:39 67° ESE 17:37:04 10° NE visible
02 Dec 5.2 19:11:04 10° W 19:15:42 28° NW 19:18:13 20° N visible
03 Dec 4.9 18:39:00 10° WSW 18:43:55 34° NW 18:47:42 16° NNE visible
03 Dec 6.2 20:26:56 10° NW 20:28:22 12° NNW 20:28:22 12° NNW visible
04 Dec 4.6 18:07:01 10° WSW 18:12:10 42° NW 18:17:08 11° NNE visible
04 Dec 5.9 19:54:24 10° NW 19:57:15 14° NNW 19:57:48 14° NNW visible
05 Dec 4.2 17:35:09 10° SW 17:40:28 53° NW 17:45:49 10° NNE visible
05 Dec 5.7 19:21:58 10° WNW 19:25:19 16° NNW 19:27:13 14° N visible
